Weather History for Columbus AFB, MS

Change the Weather History Date:

Tuesday, November 13, 2012

  Actual Average Record
Temperature  
Mean Temperature 43 °F -  
Max Temperature 55 °F 62 °F 77 °F (2011)
Min Temperature 31 °F 42 °F 26 °F (2013)
Degree Days  
Heating Degree Days 22    
Moisture  
Dew Point 28 °F    
Average Humidity 66    
Maximum Humidity 89    
Minimum Humidity 29    
Precipitation  
Precipitation 0.00 in - - ()
Sea Level Pressure  
Sea Level Pressure 30.44 in    
Wind  
Wind Speed 6 mph (North)    
Max Wind Speed 16 mph    
Max Gust Speed 18 mph    
Visibility 9 miles    
Events      
Averages and records for this station are not official NWS values.
T = Trace of Precipitation, MM = Missing Value Source: NWS Daily Summary

Daily Weather History Graph

Daily Weather History Graph

Search for Another Location

Airport:

Trip Planner

Search our weather history database for the weather conditions in past years. The results will help you decide how hot, cold, wet, or windy it might be!

Date:

Astronomy

Nov. 13, 2012 Rise Set
Actual Time 6:24 AM CST 4:51 PM CST
Civil Twilight 5:57 AM CST 5:18 PM CST
Nautical Twilight 5:27 AM CST 5:48 PM CST
Astronomical Twilight 4:58 AM CST 6:17 PM CST
Moon 6:01 AM CST (11/13) 4:46 PM CST (11/13)
Length of Visible Light 11h 20m
Length of Day
10h 27m
Waning Crescent, 0% of the Moon is Illuminated
Nov 13
Waning Crescent
Nov 13
New
Nov 20
First Quarter
Nov 28
Full
Dec 6
Last Quarter

Hourly Weather History & Observations

Time (CST) Temp. Windchill Dew Point Humidity Pressure Visibility Wind Dir Wind Speed Gust Speed Precip Events Conditions
12:55 AM 34.7 °F 28.8 °F 28.6 °F 78% 30.45 in 10.0 mi North 6.9 mph - N/A   Clear
1:55 AM 34.0 °F 28.8 °F 28.4 °F 80% 30.45 in 10.0 mi North 5.8 mph - N/A   Clear
2:55 AM 33.1 °F 27.7 °F 28.4 °F 83% 30.46 in 10.0 mi North 5.8 mph - N/A   Clear
3:55 AM 32.2 °F 27.7 °F 28.6 °F 87% 30.47 in 10.0 mi NNW 4.6 mph - N/A   Clear
4:55 AM 32.0 °F 28.7 °F 28.6 °F 87% 30.48 in 10.0 mi North 3.5 mph - N/A   Clear
5:55 AM 31.3 °F 27.9 °F 27.9 °F 87% 30.49 in 10.0 mi North 3.5 mph - N/A   Clear
6:55 AM 31.6 °F 28.3 °F 28.8 °F 89% 30.50 in 10.0 mi North 3.5 mph - N/A   Clear
7:23 AM 33.8 °F - 30.2 °F 87% 30.51 in 5.0 mi Calm Calm - N/A   Clear
7:25 AM 33.8 °F - 30.2 °F 87% 30.51 in 4.0 mi Calm Calm - N/A   Clear
7:33 AM 33.8 °F - 30.2 °F 87% 30.51 in 5.0 mi Calm Calm - N/A   Clear
7:55 AM 36.5 °F 30.3 °F 30.9 °F 80% 30.51 in 9.0 mi North 8.1 mph - N/A   Clear
8:55 AM 42.6 °F 39.9 °F 29.3 °F 59% 30.51 in 10.0 mi NE 4.6 mph - N/A   Clear
9:55 AM 47.5 °F - 25.7 °F 43% 30.50 in 10.0 mi NE 8.1 mph - N/A   Clear
10:55 AM 50.5 °F - 26.2 °F 39% 30.48 in 10.0 mi North 12.7 mph - N/A   Clear
11:55 AM 52.7 °F - 24.8 °F 34% 30.44 in 10.0 mi NNW 11.5 mph - N/A   Clear
12:55 PM 54.1 °F - 24.8 °F 32% 30.40 in 10.0 mi North 13.8 mph 18.4 mph N/A   Clear
1:55 PM 55.9 °F - 25.7 °F 31% 30.37 in 10.0 mi North 16.1 mph - N/A   Clear
2:55 PM 55.4 °F - 23.0 °F 29% 30.36 in 10.0 mi North 12.7 mph - N/A   Clear
3:55 PM 54.5 °F - 25.0 °F 32% 30.36 in 10.0 mi North 10.4 mph - N/A   Clear
4:55 PM 48.9 °F - 26.4 °F 42% 30.37 in 10.0 mi North 5.8 mph - N/A   Clear
5:55 PM 46.2 °F 43.3 °F 29.3 °F 52% 30.37 in 10.0 mi NNE 5.8 mph - N/A   Clear
6:55 PM 41.5 °F 37.8 °F 30.0 °F 64% 30.38 in 10.0 mi North 5.8 mph - N/A   Clear
7:55 PM 38.7 °F - 31.5 °F 75% 30.39 in 10.0 mi Calm Calm - N/A   Clear
8:55 PM 37.0 °F - 31.6 °F 81% 30.39 in 10.0 mi Calm Calm - N/A   Clear
9:55 PM 33.1 °F 30.0 °F 29.5 °F 87% 30.39 in 10.0 mi NW 3.5 mph - N/A   Clear
10:55 PM 36.0 °F 32.1 °F 29.8 °F 78% 30.38 in 10.0 mi NNW 4.6 mph - N/A   Clear
11:55 PM 36.1 °F - 29.3 °F 76% 30.36 in 10.0 mi Calm Calm - N/A   Clear